When you browse on this site, cookies collect data to enhance your experience and personalize the content and advertising you see.
Visit our Privacy Policy to learn more. By continuing to use the site, you agree to this use of cookies and data.
  • En España
  • Lista de países
  • Para 7 días
  • Temperatura del agua
  • El tiempo en el mapa
  • Informadores
  • user-avatar
    Iniciar sesión

    Tiempo cada hora Rio de Janeiro

    Hoy, 22 Febrero, Sábado

    Tiempo Temperatura Precipitaciones Viento Presión Humedad
    00:00 +27°C° 1 mm 1 mps 757 mmHg 87%
    01:00 +25°C° 0.1 mm 0 mps 756 mmHg 87%
    02:00 +24°C° 0.1 mm 0 mps 756 mmHg 86%
    03:00 +24°C° 0 mm 0 mps 756 mmHg 84%
    04:00 +24°C° 0 mm 0 mps 756 mmHg 84%
    05:00 +24°C° 0 mm 0 mps 756 mmHg 84%
    06:00 +24°C° 0 mm 0 mps 757 mmHg 84%
    07:00 +24°C° 0.2 mm 0 mps 757 mmHg 84%
    08:00 +24°C° 0.2 mm 0 mps 757 mmHg 84%
    09:00 +26°C° 0 mm 1 mps 758 mmHg 83%
    10:00 +27°C° 0.4 mm 1 mps 758 mmHg 78%
    11:00 +28°C° 0.4 mm 1 mps 757 mmHg 74%
    12:00 +28°C° 0.4 mm 1 mps 757 mmHg 70%
    13:00 +29°C° 0.2 mm 2 mps 757 mmHg 69%
    14:00 +29°C° 0.2 mm 2 mps 757 mmHg 68%
    15:00 +29°C° 0.2 mm 3 mps 757 mmHg 67%
    16:00 +28°C° 0.9 mm 4 mps 757 mmHg 73%
    17:00 +26°C° 0.9 mm 5 mps 758 mmHg 80%
    18:00 +24°C° 0.9 mm 6 mps 758 mmHg 86%
    19:00 +25°C° 0.5 mm 5 mps 759 mmHg 85%
    20:00 +25°C° 0.5 mm 4 mps 759 mmHg 84%
    21:00 +25°C° 0.5 mm 3 mps 760 mmHg 83%
    22:00 +25°C° 0.4 mm 3 mps 760 mmHg 83%
    23:00 +25°C° 0.4 mm 3 mps 760 mmHg 83%

    Mañana, 23 Febrero, Domingo

    Tiempo Temperatura Precipitaciones Viento Presión Humedad
    00:00 +24°C° 0.4 mm 3 mps 760 mmHg 83%
    01:00 +24°C° 0.4 mm 2 mps 760 mmHg 83%
    02:00 +24°C° 0.4 mm 2 mps 759 mmHg 83%
    03:00 +24°C° 0.4 mm 1 mps 759 mmHg 84%
    04:00 +24°C° 0.4 mm 1 mps 760 mmHg 83%
    05:00 +24°C° 0.4 mm 1 mps 760 mmHg 83%
    06:00 +24°C° 0.4 mm 1 mps 760 mmHg 83%
    07:00 +25°C° 0.2 mm 1 mps 760 mmHg 79%
    08:00 +26°C° 0.2 mm 1 mps 761 mmHg 76%
    09:00 +27°C° 0.2 mm 1 mps 761 mmHg 72%
    10:00 +27°C° 0.1 mm 2 mps 761 mmHg 68%
    11:00 +28°C° 0.1 mm 2 mps 761 mmHg 64%
    12:00 +28°C° 0.1 mm 3 mps 761 mmHg 60%
    13:00 +28°C° 0 mm 3 mps 760 mmHg 60%
    14:00 +27°C° 0 mm 3 mps 760 mmHg 61%
    15:00 +27°C° 0 mm 3 mps 760 mmHg 61%
    16:00 +27°C° 0 mm 3 mps 760 mmHg 62%
    17:00 +26°C° 0 mm 3 mps 760 mmHg 64%
    18:00 +26°C° 0 mm 2 mps 760 mmHg 65%
    19:00 +25°C° 0 mm 2 mps 760 mmHg 66%
    20:00 +25°C° 0 mm 2 mps 761 mmHg 67%
    21:00 +25°C° 0 mm 2 mps 761 mmHg 68%
    22:00 +24°C° 0 mm 2 mps 761 mmHg 69%
    23:00 +24°C° 0 mm 2 mps 761 mmHg 69%

    Pasado mañana, 24 Febrero, Lunes

    Tiempo Temperatura Precipitaciones Viento Presión Humedad
    00:00 +24°C° 0 mm 2 mps 760 mmHg 69%
    01:00 +24°C° 0 mm 2 mps 760 mmHg 70%
    02:00 +23°C° 0 mm 2 mps 759 mmHg 71%
    03:00 +23°C° 0 mm 1 mps 759 mmHg 72%
    04:00 +23°C° 0 mm 1 mps 759 mmHg 73%
    05:00 +23°C° 0 mm 1 mps 759 mmHg 74%
    06:00 +22°C° 0 mm 1 mps 759 mmHg 75%
    07:00 +24°C° 0 mm 1 mps 760 mmHg 69%
    08:00 +26°C° 0 mm 2 mps 760 mmHg 63%
    09:00 +27°C° 0 mm 2 mps 760 mmHg 58%
    10:00 +28°C° 0 mm 2 mps 760 mmHg 57%
    11:00 +29°C° 0 mm 3 mps 760 mmHg 56%
    12:00 +30°C° 0 mm 3 mps 760 mmHg 56%
    13:00 +29°C° 0.4 mm 3 mps 759 mmHg 62%
    14:00 +28°C° 0.4 mm 3 mps 759 mmHg 69%
    15:00 +27°C° 0.4 mm 3 mps 758 mmHg 76%
    16:00 +26°C° 2.7 mm 3 mps 758 mmHg 80%
    17:00 +25°C° 2.7 mm 3 mps 758 mmHg 84%
    18:00 +24°C° 2.7 mm 3 mps 758 mmHg 89%
    19:00 +24°C° 0.2 mm 3 mps 758 mmHg 88%
    20:00 +24°C° 0.2 mm 3 mps 758 mmHg 88%
    21:00 +24°C° 0.2 mm 3 mps 759 mmHg 87%
    22:00 +24°C° 0 mm 2 mps 758 mmHg 87%
    23:00 +24°C° 0 mm 2 mps 758 mmHg 87%

    25 Febrero, Martes

    Tiempo Temperatura Precipitaciones Viento Presión Humedad
    00:00 +24°C° 0 mm 2 mps 758 mmHg 87%
    01:00 +24°C° 0 mm 1 mps 758 mmHg 87%
    02:00 +24°C° 0 mm 1 mps 757 mmHg 86%
    03:00 +24°C° 0 mm 1 mps 757 mmHg 86%
    04:00 +24°C° 0 mm 1 mps 757 mmHg 86%
    05:00 +24°C° 0 mm 1 mps 757 mmHg 85%
    06:00 +24°C° 0 mm 1 mps 757 mmHg 85%
    07:00 +25°C° 0.1 mm 1 mps 757 mmHg 82%
    08:00 +26°C° 0.1 mm 1 mps 757 mmHg 80%
    09:00 +26°C° 0.1 mm 1 mps 758 mmHg 77%
    10:00 +29°C° 0 mm 1 mps 757 mmHg 69%
    11:00 +31°C° 0 mm 1 mps 757 mmHg 61%
    12:00 +34°C° 0 mm 1 mps 757 mmHg 54%
    13:00 +35°C° 0.4 mm 2 mps 756 mmHg 55%
    14:00 +34°C° 0.4 mm 2 mps 756 mmHg 57%
    15:00 +34°C° 0.4 mm 3 mps 755 mmHg 59%
    16:00 +32°C° 0.7 mm 2 mps 755 mmHg 64%
    17:00 +31°C° 0.7 mm 2 mps 755 mmHg 69%
    18:00 +30°C° 0.7 mm 2 mps 755 mmHg 74%
    19:00 +29°C° 0.1 mm 2 mps 755 mmHg 76%
    20:00 +29°C° 0.1 mm 2 mps 755 mmHg 78%
    21:00 +28°C° 0.1 mm 2 mps 756 mmHg 81%
    22:00 +28°C° 0 mm 1 mps 755 mmHg 82%
    23:00 +27°C° 0 mm 1 mps 755 mmHg 83%

    26 Febrero, Miércoles

    Tiempo Temperatura Precipitaciones Viento Presión Humedad
    00:00 +27°C° 0 mm 1 mps 755 mmHg 84%
    01:00 +27°C° 0 mm 1 mps 754 mmHg 84%
    02:00 +26°C° 0 mm 1 mps 754 mmHg 84%
    03:00 +26°C° 0 mm 1 mps 753 mmHg 84%
    04:00 +26°C° 0.2 mm 1 mps 753 mmHg 84%
    05:00 +26°C° 0.2 mm 1 mps 753 mmHg 84%
    06:00 +26°C° 0.2 mm 2 mps 753 mmHg 84%
    07:00 +27°C° 0.5 mm 1 mps 753 mmHg 82%
    08:00 +27°C° 0.5 mm 1 mps 754 mmHg 79%
    09:00 +28°C° 0.5 mm 1 mps 754 mmHg 76%
    10:00 +29°C° 0 mm 1 mps 753 mmHg 72%
    11:00 +30°C° 0 mm 2 mps 753 mmHg 68%
    12:00 +31°C° 0 mm 2 mps 753 mmHg 64%
    13:00 +32°C° 0 mm 2 mps 752 mmHg 62%
    14:00 +32°C° 0 mm 2 mps 751 mmHg 61%
    15:00 +34°C° 0 mm 2 mps 751 mmHg 59%
    16:00 +32°C° 0 mm 2 mps 751 mmHg 63%
    17:00 +31°C° 0 mm 1 mps 751 mmHg 66%
    18:00 +30°C° 0 mm 1 mps 751 mmHg 70%
    19:00 +29°C° 0.6 mm 1 mps 751 mmHg 74%
    20:00 +28°C° 0.6 mm 2 mps 752 mmHg 79%
    21:00 +28°C° 0.6 mm 3 mps 753 mmHg 83%
    22:00 +27°C° 0.2 mm 2 mps 753 mmHg 84%
    23:00 +27°C° 0.2 mm 2 mps 753 mmHg 84%

    27 Febrero, Jueves

    Tiempo Temperatura Precipitaciones Viento Presión Humedad
    00:00 +27°C° 0.2 mm 1 mps 753 mmHg 85%
    01:00 +27°C° 0.7 mm 2 mps 753 mmHg 86%
    02:00 +27°C° 0.7 mm 3 mps 752 mmHg 87%
    03:00 +26°C° 0.7 mm 3 mps 752 mmHg 88%
    04:00 +26°C° 2.5 mm 3 mps 753 mmHg 89%
    05:00 +26°C° 2.5 mm 3 mps 753 mmHg 90%
    06:00 +25°C° 2.5 mm 3 mps 754 mmHg 91%
    07:00 +25°C° 1.9 mm 3 mps 754 mmHg 90%
    08:00 +25°C° 1.9 mm 3 mps 755 mmHg 89%
    09:00 +25°C° 1.9 mm 3 mps 755 mmHg 89%
    10:00 +26°C° 0.5 mm 3 mps 756 mmHg 86%
    11:00 +26°C° 0.5 mm 3 mps 756 mmHg 84%
    12:00 +26°C° 0.5 mm 3 mps 756 mmHg 81%
    13:00 +27°C° 0.1 mm 3 mps 756 mmHg 76%
    14:00 +27°C° 0.1 mm 4 mps 755 mmHg 72%
    15:00 +28°C° 0.1 mm 4 mps 755 mmHg 67%
    16:00 +27°C° 0 mm 3 mps 755 mmHg 69%
    17:00 +26°C° 0 mm 3 mps 755 mmHg 70%
    18:00 +26°C° 0 mm 3 mps 756 mmHg 72%
    19:00 +25°C° 0 mm 2 mps 756 mmHg 72%
    20:00 +25°C° 0 mm 2 mps 757 mmHg 72%
    21:00 +25°C° 0 mm 2 mps 758 mmHg 73%
    22:00 +25°C° 0 mm 2 mps 758 mmHg 73%
    23:00 +25°C° 0 mm 2 mps 758 mmHg 72%
    Mostrar más